contact:dominique.lefevre@mio.osupytheas.fr, maurice.libes@osupytheas.fr, didier.mallarino@osupytheas.fr
Project:EMSO http://www.emso-fr.org/EMSO-France
Depth: 2436.0 m
Title:EMSO Ligure Ouest : Data MII capteur AQUADOPP
Date,Latitude,Longitude,X_East,Y_North,Z_Up,Amplitude_X,Amplitude_Y,Amplitude_Z,Batterie,SoundSpeed,Heading,Pitch,Roll,Pressure,TIS,Speed,Direction
, degrees North, degrees East, m.s-1, m.s-1,m.s-1, 1, 1, 1, Volt, m.s-1, degree, degree, degree, dbar, degree_C, m.s-1, degree
2019-11-23T00:04:03,42.805,6.029,0.044,0.031,-0.022,100.0,110.0,98.0,13.3,1505.2,327.0,-0.7,1.8,2470.173,13.3,0.053,54.8
2019-11-23T00:07:03,42.805,6.029,0.047,0.028,-0.014,99.0,111.0,99.0,13.4,1505.3,325.5,-0.7,1.9,2470.186,13.31,0.054,59.2
2019-11-23T00:10:03,42.805,6.029,0.044,0.034,-0.012,100.0,111.0,97.0,13.4,1505.3,323.6,-0.7,1.9,2470.181,13.31,0.055,52.3
2019-11-23T00:13:03,42.805,6.029,0.009,0.034,-0.035,100.0,111.0,98.0,13.4,1505.3,327.6,-0.7,1.8,2470.123,13.32,0.035,14.8
2019-11-23T00:16:03,42.805,6.029,0.046,0.018,-0.051,99.0,114.0,97.0,13.3,1505.3,325.3,-0.7,1.8,2470.168,13.32,0.049,68.6
2019-11-23T00:19:03,42.805,6.029,0.059,0.032,-0.014,101.0,111.0,98.0,13.4,1505.3,323.6,-0.7,1.8,2470.149,13.32,0.067,61.5
2019-11-23T00:22:03,42.805,6.029,0.047,0.0,-0.056,100.0,112.0,97.0,13.3,1505.3,327.6,-0.7,1.8,2470.138,13.32,0.047,90.0
2019-11-23T00:25:03,42.805,6.029,0.025,0.016,-0.058,100.0,110.0,98.0,13.4,1505.3,323.9,-0.7,1.8,2470.162,13.32,0.029,57.4
2019-11-23T00:28:03,42.805,6.029,0.039,0.014,-0.017,100.0,111.0,98.0,13.4,1505.3,325.9,-0.7,1.8,2470.123,13.32,0.041,70.3
2019-11-23T00:31:03,42.805,6.029,0.041,0.017,-0.035,101.0,109.0,98.0,13.3,1505.3,326.0,-0.7,1.8,2470.169,13.32,0.044,67.5
2019-11-23T00:34:03,42.805,6.029,0.027,0.006,-0.069,101.0,108.0,98.0,13.4,1505.3,324.5,-0.7,1.8,2470.139,13.32,0.027,77.5
2019-11-23T00:37:03,42.805,6.029,0.005,0.035,-0.011,101.0,109.0,98.0,13.4,1505.3,323.4,-0.7,1.8,2470.158,13.32,0.035,8.1
2019-11-23T00:40:03,42.805,6.029,0.043,0.002,-0.067,98.0,111.0,98.0,13.4,1505.3,324.0,-0.7,1.8,2470.191,13.32,0.043,87.3
2019-11-23T00:43:03,42.805,6.029,0.041,0.037,-0.018,99.0,110.0,98.0,13.4,1505.3,328.1,-0.7,1.9,2470.129,13.32,0.055,47.9
2019-11-23T00:46:03,42.805,6.029,0.039,0.02,-0.022,98.0,110.0,99.0,13.3,1505.3,324.9,-0.7,1.8,2470.161,13.32,0.043,62.9
2019-11-23T00:49:03,42.805,6.029,0.031,0.002,-0.042,100.0,112.0,98.0,13.4,1505.3,325.3,-0.7,1.8,2470.163,13.32,0.031,86.3
2019-11-23T00:52:03,42.805,6.029,0.03,0.017,-0.045,100.0,109.0,98.0,13.4,1505.3,327.6,-0.7,1.8,2470.123,13.32,0.034,60.5
2019-11-23T00:55:03,42.805,6.029,0.031,0.006,-0.029,100.0,108.0,98.0,13.4,1505.3,325.5,-0.7,1.8,2470.169,13.32,0.031,79.0
2019-11-23T00:58:03,42.805,6.029,0.048,0.026,-0.038,100.0,111.0,98.0,13.4,1505.3,328.0,-0.7,1.8,2470.161,13.32,0.054,61.6
2019-11-23T01:04:03,42.805,6.029,0.018,0.017,-0.059,101.0,114.0,99.0,13.4,1505.2,323.2,-0.7,1.8,2470.211,13.3,0.024,46.6
2019-11-23T01:07:03,42.805,6.029,0.059,-0.001,-0.062,100.0,113.0,98.0,13.4,1505.3,326.4,-0.7,1.8,2470.166,13.31,0.059,91.0
2019-11-23T01:10:03,42.805,6.029,0.05,0.042,-0.014,99.0,111.0,98.0,13.4,1505.3,325.6,-0.7,1.8,2470.182,13.31,0.065,50.0
2019-11-23T01:13:03,42.805,6.029,0.043,0.029,-0.046,102.0,111.0,98.0,13.4,1505.3,325.3,-0.7,1.8,2470.193,13.32,0.051,56.0
2019-11-23T01:16:03,42.805,6.029,0.025,0.032,-0.009,100.0,110.0,98.0,13.4,1505.3,326.6,-0.7,1.8,2470.145,13.32,0.04,38.0
2019-11-23T01:19:03,42.805,6.029,0.026,-0.01,-0.051,100.0,111.0,96.0,13.4,1505.3,327.0,-0.7,1.9,2470.199,13.32,0.027,111.0
2019-11-23T01:22:03,42.805,6.029,0.051,0.025,-0.029,99.0,110.0,98.0,13.4,1505.3,323.8,-0.7,1.8,2470.163,13.32,0.056,63.9
2019-11-23T01:25:03,42.805,6.029,0.02,0.012,-0.026,100.0,111.0,98.0,13.4,1505.3,326.9,-0.7,1.8,2470.169,13.32,0.023,59.0
2019-11-23T01:28:03,42.805,6.029,0.054,0.007,-0.023,100.0,114.0,99.0,13.3,1505.3,326.9,-0.7,1.8,2470.196,13.32,0.054,82.6
2019-11-23T01:31:03,42.805,6.029,0.049,0.033,-0.019,99.0,114.0,97.0,13.4,1505.3,325.4,-0.7,1.8,2470.187,13.32,0.059,56.0
2019-11-23T01:34:03,42.805,6.029,0.017,0.016,-0.06,99.0,111.0,98.0,13.3,1505.3,327.0,-0.7,1.8,2470.217,13.32,0.023,46.7
2019-11-23T01:37:03,42.805,6.029,0.036,0.018,-0.03,98.0,115.0,99.0,13.4,1505.3,325.1,-0.7,1.8,2470.175,13.32,0.04,63.4
2019-11-23T01:40:03,42.805,6.029,0.045,0.024,-0.061,100.0,114.0,98.0,13.4,1505.3,324.7,-0.7,1.8,2470.201,13.32,0.051,61.9
2019-11-23T01:43:03,42.805,6.029,0.039,0.012,-0.046,99.0,116.0,98.0,13.3,1505.3,323.2,-0.7,1.8,2470.224,13.32,0.04,72.9
2019-11-23T01:46:03,42.805,6.029,0.052,-0.002,-0.057,99.0,112.0,99.0,13.4,1505.3,324.6,-0.7,1.8,2470.174,13.32,0.052,92.2
2019-11-23T01:49:03,42.805,6.029,0.028,0.021,-0.047,100.0,113.0,99.0,13.4,1505.3,325.4,-0.7,1.9,2470.217,13.32,0.035,53.1
2019-11-23T01:52:03,42.805,6.029,0.021,0.02,-0.046,100.0,116.0,98.0,13.4,1505.3,327.9,-0.7,1.8,2470.22,13.32,0.028,46.4
2019-11-23T01:55:03,42.805,6.029,0.046,-0.003,-0.03,101.0,111.0,98.0,13.4,1505.3,328.1,-0.7,1.8,2470.207,13.32,0.046,93.7
2019-11-23T01:58:03,42.805,6.029,0.006,0.013,-0.038,100.0,114.0,98.0,13.4,1505.3,323.7,-0.7,1.8,2470.188,13.32,0.014,24.8
2019-11-23T02:04:03,42.805,6.029,0.059,0.006,-0.04,99.0,116.0,99.0,13.4,1505.2,324.4,-0.8,1.8,2470.27,13.3,0.059,84.2
2019-11-23T02:07:03,42.805,6.029,0.095,0.023,-0.025,100.0,112.0,99.0,13.3,1505.3,327.6,-0.8,1.9,2470.229,13.31,0.097,76.4
2019-11-23T02:10:03,42.805,6.029,0.04,0.012,-0.024,100.0,112.0,98.0,13.4,1505.3,325.5,-0.7,1.8,2470.254,13.31,0.041,73.3
2019-11-23T02:13:03,42.805,6.029,0.024,0.029,-0.032,99.0,116.0,98.0,13.4,1505.3,324.1,-0.7,1.8,2470.23,13.32,0.037,39.6
2019-11-23T02:16:03,42.805,6.029,0.031,0.008,-0.058,100.0,112.0,98.0,13.3,1505.3,327.4,-0.7,1.9,2470.237,13.32,0.032,75.5
2019-11-23T02:19:03,42.805,6.029,0.028,0.027,-0.046,100.0,112.0,98.0,13.3,1505.3,324.7,-0.7,1.8,2470.241,13.32,0.038,46.0
2019-11-23T02:22:03,42.805,6.029,0.068,0.034,0.011,100.0,115.0,97.0,13.4,1505.3,328.1,-0.7,1.9,2470.243,13.32,0.076,63.4
2019-11-23T02:25:03,42.805,6.029,0.039,0.035,-0.018,100.0,113.0,98.0,13.3,1505.3,325.3,-0.7,1.8,2470.234,13.32,0.052,48.1
2019-11-23T02:28:03,42.805,6.029,0.036,-0.017,-0.063,99.0,116.0,98.0,13.4,1505.3,328.2,-0.7,1.8,2470.265,13.32,0.039,115.3
2019-11-23T02:31:03,42.805,6.029,0.002,0.019,-0.031,100.0,112.0,98.0,13.4,1505.3,325.1,-0.7,1.9,2470.24,13.32,0.019,6.0
2019-11-23T02:34:03,42.805,6.029,0.045,0.043,-0.029,100.0,117.0,98.0,13.4,1505.3,324.7,-0.7,1.8,2470.236,13.32,0.062,46.3
2019-11-23T02:37:03,42.805,6.029,0.044,0.049,-0.026,101.0,112.0,98.0,13.3,1505.3,323.2,-0.7,1.9,2470.183,13.32,0.065,41.9
2019-11-23T02:40:03,42.805,6.029,0.039,0.026,0.0,99.0,113.0,98.0,13.4,1505.3,326.5,-0.7,1.8,2470.226,13.32,0.046,56.3
2019-11-23T02:43:03,42.805,6.029,0.012,0.011,-0.032,101.0,114.0,98.0,13.4,1505.3,326.9,-0.7,1.8,2470.227,13.32,0.016,47.5
2019-11-23T02:46:03,42.805,6.029,0.014,0.041,-0.032,101.0,113.0,97.0,13.3,1505.3,324.9,-0.7,1.8,2470.238,13.32,0.043,18.9
2019-11-23T02:49:03,42.805,6.029,0.023,0.027,-0.033,100.0,111.0,98.0,13.4,1505.3,326.9,-0.7,1.8,2470.232,13.32,0.035,40.4
2019-11-23T02:52:03,42.805,6.029,0.042,0.032,-0.048,100.0,117.0,98.0,13.4,1505.3,325.6,-0.7,1.8,2470.256,13.32,0.052,52.7
2019-11-23T02:55:03,42.805,6.029,0.024,0.011,-0.048,100.0,115.0,99.0,13.4,1505.3,324.3,-0.7,1.8,2470.242,13.32,0.026,65.4
2019-11-23T02:58:03,42.805,6.029,0.049,0.023,0.006,100.0,109.0,98.0,13.4,1505.3,324.3,-0.7,1.8,2470.258,13.32,0.054,64.9
2019-11-23T03:01:03,42.805,6.029,0.039,0.014,-0.061,101.0,114.0,99.0,13.4,1505.3,328.4,-0.7,1.8,2470.237,13.32,0.041,70.3
2019-11-23T03:04:03,42.805,6.029,0.033,0.01,-0.085,101.0,114.0,98.0,13.3,1505.3,327.8,-0.7,1.8,2470.27,13.32,0.034,73.1
2019-11-23T03:07:03,42.805,6.029,0.042,0.015,-0.039,99.0,113.0,99.0,13.3,1505.3,325.8,-0.7,1.8,2470.262,13.32,0.044,70.4
2019-11-23T03:10:03,42.805,6.029,0.036,0.008,-0.046,102.0,113.0,98.0,13.4,1505.3,324.0,-0.7,1.8,2470.264,13.32,0.036,77.5
2019-11-23T03:13:03,42.805,6.029,0.042,0.0,-0.03,101.0,116.0,98.0,13.3,1505.3,327.3,-0.7,1.9,2470.283,13.32,0.042,90.0
2019-11-23T03:16:03,42.805,6.029,0.027,0.021,-0.044,99.0,113.0,99.0,13.3,1505.3,324.4,-0.7,1.8,2470.285,13.32,0.034,52.1
2019-11-23T03:19:03,42.805,6.029,0.05,0.025,-0.011,100.0,116.0,99.0,13.3,1505.3,326.4,-0.7,1.8,2470.259,13.32,0.055,63.4
2019-11-23T03:22:03,42.805,6.029,0.062,0.017,-0.013,99.0,115.0,99.0,13.4,1505.3,328.6,-0.7,1.9,2470.273,13.32,0.064,74.7
2019-11-23T03:25:03,42.805,6.029,0.047,0.021,-0.048,100.0,113.0,99.0,13.4,1505.3,323.8,-0.7,1.8,2470.284,13.32,0.051,65.9
2019-11-23T03:28:03,42.805,6.029,0.018,0.035,-0.031,101.0,115.0,98.0,13.4,1505.3,325.0,-0.7,1.9,2470.255,13.32,0.039,27.2
2019-11-23T03:31:03,42.805,6.029,0.034,0.02,-0.045,100.0,117.0,98.0,13.4,1505.3,324.0,-0.7,1.8,2470.289,13.32,0.039,59.5
2019-11-23T03:34:03,42.805,6.029,0.027,0.017,-0.013,101.0,112.0,98.0,13.3,1505.3,325.5,-0.7,1.8,2470.27,13.32,0.031,57.8
2019-11-23T03:37:03,42.805,6.029,0.035,0.02,-0.038,100.0,115.0,98.0,13.4,1505.3,325.6,-0.7,1.8,2470.299,13.32,0.04,60.3
2019-11-23T03:40:03,42.805,6.029,0.014,0.006,-0.044,101.0,114.0,98.0,13.3,1505.3,325.4,-0.7,1.8,2470.291,13.32,0.015,66.8
2019-11-23T03:46:03,42.805,6.029,0.048,0.014,0.009,101.0,115.0,103.0,13.4,1505.2,323.9,-0.8,1.8,2470.337,13.3,0.05,73.7
2019-11-23T03:49:03,42.805,6.029,0.044,0.014,-0.03,100.0,112.0,99.0,13.3,1505.3,326.0,-0.7,1.8,2470.339,13.31,0.046,72.4
2019-11-23T03:52:03,42.805,6.029,0.01,0.011,-0.014,101.0,114.0,97.0,13.3,1505.3,325.3,-0.7,1.8,2470.31,13.31,0.014,42.3
2019-11-23T03:55:03,42.805,6.029,0.021,0.025,-0.025,101.0,116.0,99.0,13.3,1505.3,327.1,-0.7,1.8,2470.309,13.32,0.032,40.0
2019-11-23T03:58:03,42.805,6.029,0.04,-0.013,-0.012,101.0,115.0,99.0,13.3,1505.3,326.5,-0.8,1.8,2470.303,13.32,0.042,108.0
2019-11-23T04:04:03,42.805,6.029,0.033,0.005,-0.032,101.0,112.0,99.0,13.3,1505.2,326.4,-0.7,1.8,2470.323,13.3,0.033,81.4
2019-11-23T04:07:03,42.805,6.029,0.0,0.021,-0.04,102.0,117.0,97.0,13.4,1505.3,326.2,-0.7,1.8,2470.343,13.31,0.021,0.0
2019-11-23T04:13:03,42.805,6.029,0.037,0.017,0.0,100.0,112.0,99.0,13.3,1505.2,327.1,-0.7,1.8,2470.335,13.3,0.04,65.3
2019-11-23T04:16:03,42.805,6.029,0.034,0.011,-0.018,100.0,113.0,99.0,13.4,1505.3,326.0,-0.7,1.8,2470.378,13.31,0.035,72.1
2019-11-23T04:19:03,42.805,6.029,0.02,0.004,-0.02,100.0,112.0,99.0,13.4,1505.3,323.0,-0.7,1.8,2470.305,13.31,0.02,78.7
2019-11-23T04:22:03,42.805,6.029,0.067,-0.003,0.001,102.0,113.0,98.0,13.4,1505.3,328.0,-0.7,1.8,2470.288,13.32,0.067,92.6
2019-11-23T04:25:03,42.805,6.029,0.019,0.011,-0.027,101.0,115.0,98.0,13.4,1505.3,325.5,-0.7,1.8,2470.32,13.32,0.021,59.9
2019-11-23T04:28:03,42.805,6.029,0.017,0.026,-0.023,101.0,116.0,99.0,13.4,1505.3,325.5,-0.7,1.9,2470.331,13.32,0.031,33.2
2019-11-23T04:31:03,42.805,6.029,0.026,0.012,-0.013,101.0,114.0,98.0,13.3,1505.3,324.9,-0.7,1.8,2470.304,13.32,0.028,65.2
2019-11-23T04:34:03,42.805,6.029,0.028,0.011,-0.022,100.0,115.0,99.0,13.3,1505.3,327.0,-0.7,1.8,2470.276,13.32,0.03,68.6
2019-11-23T04:37:03,42.805,6.029,0.037,0.01,-0.024,100.0,113.0,99.0,13.4,1505.3,323.8,-0.7,1.8,2470.32,13.32,0.038,74.9
2019-11-23T04:40:03,42.805,6.029,0.013,0.007,-0.02,101.0,118.0,98.0,13.3,1505.3,323.0,-0.7,1.9,2470.33,13.32,0.014,61.7
2019-11-23T04:43:03,42.805,6.029,0.034,0.0,-0.028,100.0,117.0,99.0,13.4,1505.3,326.9,-0.7,1.9,2470.361,13.32,0.034,90.0
2019-11-23T04:46:03,42.805,6.029,0.037,0.008,-0.033,101.0,112.0,99.0,13.4,1505.3,327.0,-0.7,1.8,2470.299,13.32,0.037,77.8
2019-11-23T04:49:03,42.805,6.029,0.015,0.019,-0.039,102.0,114.0,98.0,13.4,1505.3,327.7,-0.7,1.8,2470.303,13.32,0.024,38.3
2019-11-23T04:52:03,42.805,6.029,0.05,0.024,-0.013,101.0,114.0,98.0,13.3,1505.3,324.4,-0.7,1.8,2470.281,13.32,0.055,64.4
2019-11-23T04:55:03,42.805,6.029,0.037,0.003,-0.027,100.0,116.0,99.0,13.4,1505.3,326.6,-0.7,1.8,2470.306,13.32,0.037,85.4
2019-11-23T04:58:03,42.805,6.029,0.057,0.0,-0.02,102.0,113.0,97.0,13.4,1505.3,324.6,-0.7,1.8,2470.325,13.32,0.057,90.0
2019-11-23T05:04:03,42.805,6.029,0.049,0.003,-0.018,99.0,116.0,99.0,13.4,1505.2,325.9,-0.7,1.8,2470.316,13.3,0.049,86.5
2019-11-23T05:07:03,42.805,6.029,0.051,0.026,0.034,100.0,116.0,98.0,13.4,1505.3,324.1,-0.7,1.8,2470.352,13.31,0.057,63.0
2019-11-23T05:10:03,42.805,6.029,0.038,0.003,0.024,101.0,114.0,99.0,13.3,1505.3,324.8,-0.8,1.9,2470.273,13.31,0.038,85.5
2019-11-23T05:13:03,42.805,6.029,0.067,0.024,-0.009,100.0,115.0,99.0,13.4,1505.3,327.0,-0.7,1.9,2470.331,13.32,0.071,70.3
2019-11-23T05:16:03,42.805,6.029,0.033,0.032,0.0,100.0,115.0,99.0,13.4,1505.3,326.5,-0.7,1.8,2470.346,13.32,0.045,45.9
2019-11-23T05:19:03,42.805,6.029,0.035,-0.003,-0.015,101.0,115.0,99.0,13.3,1505.3,327.1,-0.7,1.8,2470.311,13.32,0.035,94.9
2019-11-23T05:22:03,42.805,6.029,0.009,0.006,-0.057,101.0,115.0,99.0,13.4,1505.3,326.3,-0.7,1.8,2470.307,13.32,0.01,56.3
2019-11-23T05:25:03,42.805,6.029,0.037,0.02,-0.017,102.0,111.0,99.0,13.4,1505.3,324.8,-0.7,1.8,2470.329,13.32,0.042,61.6
2019-11-23T05:28:03,42.805,6.029,0.045,0.02,0.014,102.0,113.0,98.0,13.4,1505.3,327.6,-0.7,1.8,2470.292,13.32,0.049,66.0
2019-11-23T05:31:03,42.805,6.029,0.027,0.009,-0.017,101.0,115.0,99.0,13.4,1505.3,326.2,-0.7,1.8,2470.315,13.32,0.028,71.6
2019-11-23T05:34:03,42.805,6.029,0.022,0.022,0.001,101.0,115.0,99.0,13.4,1505.3,323.0,-0.7,1.8,2470.322,13.32,0.031,45.0
2019-11-23T05:37:03,42.805,6.029,0.02,0.004,-0.021,100.0,114.0,99.0,13.3,1505.3,325.3,-0.7,1.8,2470.317,13.32,0.02,78.7
2019-11-23T05:40:03,42.805,6.029,0.049,0.01,-0.027,101.0,114.0,100.0,13.4,1505.3,324.6,-0.7,1.8,2470.315,13.32,0.05,78.5
2019-11-23T05:43:03,42.805,6.029,0.035,0.024,-0.007,100.0,115.0,99.0,13.3,1505.3,325.9,-0.7,1.8,2470.343,13.32,0.042,55.6
2019-11-23T05:46:03,42.805,6.029,0.038,-0.001,-0.008,101.0,115.0,99.0,13.4,1505.3,323.6,-0.7,1.8,2470.271,13.32,0.038,91.5
2019-11-23T05:49:03,42.805,6.029,0.018,0.031,0.02,101.0,116.0,99.0,13.3,1505.3,327.8,-0.7,1.8,2470.329,13.32,0.035,30.1
2019-11-23T05:52:03,42.805,6.029,0.034,0.025,0.001,100.0,115.0,98.0,13.4,1505.3,327.2,-0.7,1.9,2470.275,13.32,0.042,53.7
2019-11-23T05:55:03,42.805,6.029,0.027,0.026,-0.011,101.0,116.0,99.0,13.4,1505.3,325.4,-0.7,1.8,2470.286,13.32,0.037,46.1
2019-11-23T05:58:03,42.805,6.029,0.024,0.016,-0.01,100.0,115.0,99.0,13.4,1505.3,326.3,-0.7,1.8,2470.288,13.32,0.028,56.3
2019-11-23T06:04:03,42.805,6.029,0.026,0.015,-0.027,100.0,117.0,99.0,13.4,1505.2,327.1,-0.7,1.8,2470.387,13.3,0.03,60.0
2019-11-23T06:07:03,42.805,6.029,0.037,0.026,-0.042,101.0,116.0,99.0,13.4,1505.3,327.5,-0.7,1.8,2470.298,13.31,0.045,54.9
2019-11-23T06:10:03,42.805,6.029,0.061,0.028,0.0,101.0,114.0,98.0,13.3,1505.3,326.6,-0.7,1.8,2470.322,13.31,0.067,65.3
2019-11-23T06:13:03,42.805,6.029,0.022,0.025,-0.054,100.0,119.0,98.0,13.3,1505.3,324.9,-0.7,1.9,2470.305,13.32,0.033,41.3
2019-11-23T06:16:03,42.805,6.029,0.036,0.011,0.011,99.0,119.0,99.0,13.4,1505.3,323.1,-0.7,1.8,2470.294,13.32,0.037,73.0
2019-11-23T06:19:03,42.805,6.029,0.021,0.018,-0.053,100.0,120.0,99.0,13.4,1505.3,325.2,-0.7,1.9,2470.364,13.32,0.027,49.4
2019-11-23T06:22:03,42.805,6.029,0.033,0.026,0.012,101.0,118.0,98.0,13.3,1505.3,324.3,-0.7,1.9,2470.291,13.32,0.042,51.8
2019-11-23T06:25:03,42.805,6.029,0.028,0.021,-0.012,100.0,115.0,99.0,13.4,1505.3,325.2,-0.7,1.8,2470.286,13.32,0.035,53.1
2019-11-23T06:28:03,42.805,6.029,0.02,0.002,-0.004,100.0,114.0,99.0,13.4,1505.3,327.1,-0.7,1.8,2470.278,13.32,0.02,84.3
2019-11-23T06:31:03,42.805,6.029,0.048,0.009,0.001,102.0,112.0,99.0,13.4,1505.3,323.5,-0.7,1.8,2470.304,13.32,0.048,79.4
2019-11-23T06:34:03,42.805,6.029,0.028,0.015,-0.018,101.0,115.0,99.0,13.3,1505.3,325.1,-0.7,1.8,2470.29,13.32,0.031,61.8
2019-11-23T06:37:03,42.805,6.029,0.031,0.009,-0.013,102.0,111.0,98.0,13.3,1505.3,326.6,-0.7,1.8,2470.305,13.32,0.032,73.8
2019-11-23T06:40:03,42.805,6.029,0.035,0.012,0.0,100.0,113.0,100.0,13.3,1505.3,323.6,-0.7,1.8,2470.304,13.32,0.037,71.1
2019-11-23T06:43:03,42.805,6.029,0.017,0.025,-0.03,101.0,115.0,100.0,13.4,1505.3,324.8,-0.7,1.9,2470.299,13.32,0.03,34.2
2019-11-23T06:46:03,42.805,6.029,0.038,0.017,-0.022,101.0,113.0,99.0,13.4,1505.3,325.2,-0.7,1.8,2470.303,13.32,0.041,65.9
2019-11-23T06:49:03,42.805,6.029,0.026,0.0,-0.017,101.0,116.0,99.0,13.4,1505.3,325.4,-0.7,1.8,2470.305,13.32,0.026,90.0
2019-11-23T06:52:03,42.805,6.029,0.042,0.01,0.015,100.0,112.0,99.0,13.4,1505.3,323.2,-0.7,1.8,2470.302,13.32,0.043,76.6
2019-11-23T06:55:03,42.805,6.029,0.037,0.009,-0.034,100.0,112.0,99.0,13.4,1505.3,326.9,-0.7,1.8,2470.258,13.32,0.038,76.3
2019-11-23T06:58:03,42.805,6.029,0.04,0.006,-0.015,101.0,114.0,98.0,13.3,1505.3,328.1,-0.7,1.9,2470.29,13.32,0.04,81.5
2019-11-23T07:04:03,42.805,6.029,0.044,0.008,-0.028,101.0,112.0,98.0,13.4,1505.2,323.3,-0.7,1.8,2470.299,13.3,0.044,79.7
2019-11-23T07:07:03,42.805,6.029,0.056,0.03,-0.016,100.0,114.0,100.0,13.4,1505.3,325.3,-0.7,1.8,2470.301,13.31,0.063,61.8
2019-11-23T07:10:03,42.805,6.029,0.042,0.003,-0.056,101.0,112.0,98.0,13.4,1505.3,326.8,-0.7,1.8,2470.323,13.31,0.042,85.9
2019-11-23T07:13:03,42.805,6.029,0.048,0.017,0.0,101.0,115.0,99.0,13.4,1505.3,324.4,-0.7,1.8,2470.254,13.32,0.05,70.5
2019-11-23T07:16:03,42.805,6.029,0.033,0.023,-0.005,100.0,113.0,99.0,13.4,1505.3,326.8,-0.7,1.8,2470.251,13.32,0.04,55.1
2019-11-23T07:19:03,42.805,6.029,0.027,0.008,-0.01,101.0,115.0,99.0,13.3,1505.3,325.1,-0.7,1.8,2470.265,13.32,0.028,73.5
2019-11-23T07:22:03,42.805,6.029,0.055,0.001,-0.022,102.0,110.0,99.0,13.3,1505.3,327.2,-0.7,1.9,2470.281,13.32,0.055,89.0
2019-11-23T07:25:03,42.805,6.029,0.047,0.014,0.0,101.0,115.0,99.0,13.4,1505.3,323.2,-0.7,1.8,2470.333,13.32,0.049,73.4
2019-11-23T07:28:03,42.805,6.029,0.04,0.018,-0.021,101.0,112.0,99.0,13.4,1505.3,327.0,-0.7,1.8,2470.269,13.32,0.043,65.8
2019-11-23T07:31:03,42.805,6.029,0.018,0.0,-0.003,101.0,109.0,99.0,13.4,1505.3,328.5,-0.7,1.8,2470.293,13.32,0.018,90.0
2019-11-23T07:34:03,42.805,6.029,0.022,0.008,-0.009,101.0,114.0,99.0,13.3,1505.3,327.9,-0.7,1.8,2470.265,13.32,0.023,70.0
2019-11-23T07:37:03,42.805,6.029,0.033,0.001,-0.019,101.0,114.0,99.0,13.3,1505.3,328.5,-0.7,1.9,2470.276,13.32,0.033,88.3
2019-11-23T07:40:03,42.805,6.029,0.026,0.0,-0.011,101.0,110.0,100.0,13.4,1505.3,325.3,-0.7,1.8,2470.271,13.32,0.026,90.0
2019-11-23T07:46:03,42.805,6.029,0.052,0.014,-0.01,101.0,113.0,99.0,13.4,1505.2,323.3,-0.7,1.8,2470.276,13.3,0.053,74.9
2019-11-23T07:49:03,42.805,6.029,0.014,0.008,0.0,101.0,112.0,99.0,13.4,1505.3,327.7,-0.7,1.9,2470.302,13.31,0.016,60.3
2019-11-23T07:52:03,42.805,6.029,0.031,0.001,-0.027,101.0,110.0,99.0,13.4,1505.3,326.6,-0.7,1.8,2470.293,13.31,0.031,88.2
2019-11-23T07:55:03,42.805,6.029,0.035,-0.001,0.001,101.0,112.0,99.0,13.4,1505.3,325.0,-0.7,1.8,2470.278,13.32,0.035,91.6
2019-11-23T07:58:03,42.805,6.029,0.031,0.022,-0.05,100.0,110.0,99.0,13.4,1505.3,324.9,-0.7,1.8,2470.268,13.32,0.038,54.6
2019-11-23T08:04:03,42.805,6.029,0.046,0.002,-0.024,101.0,113.0,98.0,13.3,1505.2,323.0,-0.8,1.8,2470.308,13.3,0.046,87.5
2019-11-23T08:07:03,42.805,6.029,0.025,-0.001,-0.036,102.0,111.0,99.0,13.3,1505.3,326.3,-0.7,1.8,2470.278,13.31,0.025,92.3
2019-11-23T08:10:03,42.805,6.029,0.048,-0.003,-0.023,101.0,110.0,98.0,13.3,1505.3,327.6,-0.7,1.9,2470.254,13.31,0.048,93.6
2019-11-23T08:13:03,42.805,6.029,0.074,0.01,0.021,101.0,112.0,99.0,13.4,1505.3,325.5,-0.7,1.8,2470.276,13.32,0.074,82.3
2019-11-23T08:16:03,42.805,6.029,0.036,0.012,-0.003,99.0,113.0,99.0,13.4,1505.3,326.0,-0.7,1.8,2470.285,13.32,0.037,71.6
2019-11-23T08:19:03,42.805,6.029,0.04,0.011,-0.041,101.0,112.0,99.0,13.4,1505.3,323.3,-0.7,1.8,2470.219,13.32,0.041,74.6
2019-11-23T08:22:03,42.805,6.029,0.045,-0.006,0.004,101.0,110.0,99.0,13.4,1505.3,327.6,-0.7,1.8,2470.272,13.32,0.045,97.6
2019-11-23T08:25:03,42.805,6.029,0.03,0.005,0.018,101.0,110.0,98.0,13.4,1505.3,324.7,-0.7,1.8,2470.195,13.32,0.03,80.5
2019-11-23T08:28:03,42.805,6.029,0.036,0.007,-0.031,101.0,111.0,99.0,13.3,1505.3,326.0,-0.7,1.8,2470.263,13.32,0.036,79.0
2019-11-23T08:31:03,42.805,6.029,0.04,0.006,-0.002,101.0,110.0,99.0,13.4,1505.3,322.9,-0.7,1.9,2470.248,13.32,0.04,81.5
2019-11-23T08:34:03,42.805,6.029,0.032,0.0,-0.03,100.0,109.0,99.0,13.4,1505.3,325.7,-0.7,1.8,2470.255,13.32,0.032,90.0
2019-11-23T08:37:03,42.805,6.029,0.021,0.0,-0.047,101.0,111.0,99.0,13.3,1505.3,325.0,-0.7,1.8,2470.256,13.32,0.021,90.0
2019-11-23T08:40:03,42.805,6.029,0.049,-0.006,0.007,100.0,110.0,99.0,13.3,1505.3,327.9,-0.7,1.8,2470.257,13.32,0.049,97.0
2019-11-23T08:43:03,42.805,6.029,0.043,0.009,0.001,100.0,112.0,99.0,13.4,1505.3,326.6,-0.7,1.8,2470.256,13.32,0.043,78.2
2019-11-23T08:46:03,42.805,6.029,0.035,-0.016,-0.053,102.0,109.0,99.0,13.4,1505.3,327.2,-0.7,1.8,2470.266,13.32,0.038,114.6
2019-11-23T08:49:03,42.805,6.029,0.038,0.006,-0.037,100.0,108.0,98.0,13.3,1505.3,324.2,-0.7,1.8,2470.272,13.32,0.038,81.0
2019-11-23T08:52:03,42.805,6.029,0.026,0.005,-0.028,101.0,110.0,99.0,13.4,1505.3,327.3,-0.7,1.8,2470.257,13.32,0.026,79.1
2019-11-23T08:55:03,42.805,6.029,0.049,0.007,-0.019,101.0,110.0,98.0,13.4,1505.3,324.4,-0.7,1.8,2470.229,13.32,0.049,81.9
2019-11-23T08:58:03,42.805,6.029,0.045,-0.007,-0.016,101.0,109.0,99.0,13.4,1505.3,327.6,-0.7,1.8,2470.198,13.32,0.045,98.8
2019-11-23T09:04:03,42.805,6.029,0.051,-0.004,-0.005,101.0,109.0,98.0,13.3,1505.2,326.8,-0.8,1.8,2470.241,13.3,0.051,94.5
2019-11-23T09:07:03,42.805,6.029,0.026,-0.002,-0.015,101.0,109.0,99.0,13.3,1505.3,323.5,-0.7,1.8,2470.246,13.31,0.026,94.4
2019-11-23T09:10:03,42.805,6.029,0.047,0.0,-0.048,101.0,109.0,99.0,13.3,1505.3,326.3,-0.7,1.9,2470.212,13.31,0.047,90.0
2019-11-23T09:13:03,42.805,6.029,0.024,0.005,-0.024,101.0,107.0,99.0,13.4,1505.3,325.7,-0.7,1.9,2470.212,13.32,0.024,78.2
2019-11-23T09:16:03,42.805,6.029,0.024,-0.02,-0.024,101.0,109.0,98.0,13.3,1505.3,326.7,-0.7,1.8,2470.235,13.32,0.031,129.8
2019-11-23T09:19:03,42.805,6.029,0.04,0.021,-0.002,101.0,109.0,99.0,13.3,1505.3,327.3,-0.7,1.8,2470.222,13.32,0.045,62.3
2019-11-23T09:22:03,42.805,6.029,0.05,-0.014,-0.03,101.0,110.0,99.0,13.4,1505.3,326.8,-0.7,1.8,2470.192,13.32,0.051,105.6
2019-11-23T09:25:03,42.805,6.029,0.041,0.003,-0.014,101.0,109.0,99.0,13.4,1505.3,326.9,-0.7,1.8,2470.263,13.32,0.041,85.8
2019-11-23T09:28:03,42.805,6.029,0.054,-0.001,-0.016,101.0,108.0,99.0,13.4,1505.3,326.5,-0.7,1.8,2470.244,13.32,0.054,91.1
2019-11-23T09:31:03,42.805,6.029,0.041,0.0,0.01,101.0,107.0,99.0,13.4,1505.3,326.0,-0.7,1.8,2470.24,13.32,0.041,90.0
2019-11-23T09:34:03,42.805,6.029,0.026,0.0,-0.019,100.0,111.0,100.0,13.3,1505.3,327.4,-0.7,1.8,2470.234,13.32,0.026,90.0
2019-11-23T09:37:03,42.805,6.029,0.03,-0.011,-0.008,101.0,105.0,99.0,13.4,1505.3,323.2,-0.7,1.8,2470.222,13.32,0.031,110.1
2019-11-23T09:40:03,42.805,6.029,0.046,-0.004,-0.015,101.0,105.0,98.0,13.4,1505.3,327.3,-0.7,1.9,2470.22,13.32,0.046,95.0
2019-11-23T09:43:03,42.805,6.029,0.031,-0.003,-0.01,101.0,108.0,99.0,13.4,1505.3,325.7,-0.8,1.8,2470.244,13.32,0.031,95.5
2019-11-23T09:46:03,42.805,6.029,0.055,0.007,-0.035,101.0,110.0,99.0,13.3,1505.3,323.1,-0.7,1.8,2470.225,13.32,0.055,82.7
2019-11-23T09:49:03,42.805,6.029,0.041,-0.004,0.013,101.0,109.0,99.0,13.4,1505.3,328.2,-0.7,1.8,2470.208,13.32,0.041,95.6
2019-11-23T09:52:03,42.805,6.029,0.028,0.001,-0.02,102.0,108.0,98.0,13.4,1505.3,324.5,-0.7,1.8,2470.217,13.32,0.028,88.0
2019-11-23T09:55:03,42.805,6.029,0.054,0.0,-0.027,101.0,107.0,98.0,13.4,1505.3,325.6,-0.7,1.8,2470.206,13.32,0.053,90.0
2019-11-23T09:58:03,42.805,6.029,0.042,-0.013,-0.007,100.0,106.0,98.0,13.4,1505.3,328.2,-0.7,1.8,2470.254,13.32,0.043,107.2
2019-11-23T10:04:03,42.805,6.029,0.045,0.011,0.0,102.0,108.0,99.0,13.4,1505.2,323.4,-0.7,1.8,2470.251,13.3,0.046,76.3
2019-11-23T10:07:03,42.805,6.029,0.05,0.011,-0.014,102.0,104.0,99.0,13.3,1505.3,325.1,-0.7,1.8,2470.227,13.31,0.051,77.6
2019-11-23T10:10:03,42.805,6.029,0.043,0.001,-0.014,102.0,106.0,99.0,13.3,1505.3,323.4,-0.7,1.8,2470.209,13.31,0.043,88.7
2019-11-23T10:13:03,42.805,6.029,0.05,0.01,0.005,101.0,105.0,99.0,13.4,1505.3,324.9,-0.7,1.8,2470.247,13.32,0.05,78.7
2019-11-23T10:16:03,42.805,6.029,0.014,-0.005,-0.031,101.0,106.0,99.0,13.3,1505.3,323.9,-0.8,1.8,2470.239,13.32,0.014,109.6
2019-11-23T10:19:03,42.805,6.029,0.02,0.0,-0.001,101.0,106.0,99.0,13.4,1505.3,326.9,-0.7,1.8,2470.23,13.32,0.02,90.0